This is the latest recevied weather packets stored in our database for station/object WP3OF-1. If no packets are shown the sender has not sent any weather packets the latest 10 day(s).
| Time | Temp. | Humidity | Pressure | Rain* | Wind** | Luminosity | Snow |
|---|---|---|---|---|---|---|---|
| 1777744777 | 28.33° C | 72% | 1016.5 hPa | 0 mm | - | - | - |
| 1777744471 | 28.89° C | 72% | 1016.5 hPa | 0 mm | - | - | - |
| 1777743562 | 28.89° C | 72% | 1016.7 hPa | 0 mm | - | - | - |
| 1777743259 | 28.33° C | 72% | 1017.1 hPa | 0 mm | - | - | - |
| 1777742957 | 29.44° C | 73% | 1017 hPa | 0 mm | - | - | - |
| 1777742350 | 28.89° C | 70% | 1017.2 hPa | 0 mm | - | - | - |
| 1777742046 | 28.33° C | 73% | 1017.2 hPa | 0 mm | - | - | - |
| 1777741744 | 28.33° C | 73% | 1017.2 hPa | 0 mm | - | - | - |
| 1777741136 | 28.33° C | 74% | 1017.4 hPa | 0 mm | - | - | - |
| 1777740530 | 28.89° C | 72% | 1017.5 hPa | 0 mm | - | - | - |
| 1777739923 | 28.33° C | 72% | 1017.4 hPa | 0 mm | - | - | - |
| 1777739317 | 28.33° C | 72% | 1017.9 hPa | 0 mm | - | - | - |
| 1777739013 | 29.44° C | 69% | 1017.8 hPa | 0 mm | - | - | - |
| 1777738711 | 28.33° C | 74% | 1017.8 hPa | 0 mm | - | - | - |
| 1777738105 | 29.44° C | 69% | 1017.9 hPa | 0 mm | - | - | - |
| 1777737804 | 28.33° C | 71% | 1018 hPa | 0 mm | - | - | - |
| 1777736895 | 28.89° C | 72% | 1018.2 hPa | 0 mm | - | - | - |
| 1777736281 | 28.89° C | 70% | 1018.2 hPa | 0 mm | - | - | - |
| 1777735675 | 28.89° C | 72% | 1018.1 hPa | 0 mm | - | - | - |
| 1777735373 | 28.33° C | 74% | 1017.9 hPa | 0 mm | - | - | - |
| 1777735070 | 27.78° C | 76% | 1018.1 hPa | 0 mm | - | - | - |
| 1777734767 | 28.33° C | 74% | 1018 hPa | 0 mm | - | - | - |
| 1777734465 | 28.33° C | 75% | 1018 hPa | 0 mm | - | - | - |
| 1777733858 | 28.33° C | 73% | 1018.2 hPa | 0 mm | - | - | - |
| 1777733251 | 28.89° C | 72% | 1018.3 hPa | 0 mm | - | - | - |
* Rain latest hour (hover to see other rain measurements)
** Current wind speed in m/s (hover to see current wind gust speed)